FW2265 Weather Reports


Display with metric or nautical units.
time (UTC)temp
F
wind
direction
speed
MPH
gust
MPH
rain 1hr
in
rain 24hr
in
rain mn
in
humidity
%
barometer
mb
20260503195438 81 224 2.0 5.0 0.00 0.00 0.00 32 1021.4
20260503195340 81 208 1.0 4.0 0.00 0.00 0.00 32 1021.5
20260503192341 81 214 2.0 4.0 0.00 0.00 0.00 32 1022.1
20260503191339 80 204 0.0 0.0 0.00 0.00 0.00 31 1022.2
20260503185339 80 220 1.0 3.0 0.00 0.00 0.00 29 1022.4
20260503184340 80 12 2.0 4.0 0.00 0.00 0.00 29 1022.6
20260503183339 80 68 0.0 2.0 0.00 0.00 0.00 29 1022.8
20260503182341 80 132 0.0 0.0 0.00 0.00 0.00 29 1022.8
20260503180338 80 83 0.0 3.0 0.00 0.00 0.00 30 1023.1
20260503174339 80 185 0.0 1.0 0.00 0.00 0.00 30 1023.3
20260503173341 79 90 0.0 0.0 0.00 0.00 0.00 30 1023.6
20260503172438 79 190 0.0 2.0 0.00 0.00 0.00 31 1023.6
20260503171439 78 16 2.0 4.0 0.00 0.00 0.00 32 1023.8
20260503170442 77 215 2.0 8.0 0.00 0.00 0.00 33 1023.8
20260503130738 58 67 0.0 0.0 0.00 0.00 0.00 98 1023.1
20260503090138 54 67 0.0 0.0 0.00 0.00 0.00 93 1021.7
20260503081240 55 67 0.0 0.0 0.00 0.00 0.00 91 1021.7
20260503080239 55 67 0.0 0.0 0.00 0.00 0.00 91 1021.7
20260503071439 56 67 0.0 0.0 0.00 0.00 0.00 89 1021.6
20260503070439 56 67 0.0 0.0 0.00 0.00 0.00 88 1021.7
20260503054539 58 67 0.0 0.0 0.00 0.01 0.00 84 1021.7
20260503053539 58 67 0.0 0.0 0.00 0.01 0.00 85 1021.6
20260503051638 58 67 0.0 0.0 0.00 0.01 0.00 82 1021.5
20260503051537 58 67 0.0 0.0 0.00 0.01 0.00 83 1021.5
20260503044543 59 67 0.0 0.0 0.00 0.01 0.01 79 1021.3
20260503043541 59 67 0.0 0.0 0.00 0.01 0.01 78 1021.3
20260503042542 60 67 0.0 0.0 0.00 0.01 0.01 78 1021.5
20260503040544 60 67 0.0 0.0 0.00 0.01 0.01 77 1021.5
20260503035641 61 67 0.0 0.0 0.00 0.02 0.01 76 1021.2
20260503034642 61 67 0.0 0.0 0.00 0.03 0.01 77 1021.2
20260503033644 61 67 0.0 0.0 0.00 0.03 0.01 76 1021.0
20260503032742 61 67 0.0 0.0 0.00 0.03 0.01 74 1020.9
20260503032641 61 67 0.0 0.0 0.00 0.03 0.01 73 1020.9
20260503031643 61 67 0.0 0.0 0.00 0.03 0.01 73 1020.8
20260503025644 62 67 0.0 0.0 0.00 0.04 0.01 69 1020.9
20260503024642 63 67 0.0 0.0 0.00 0.05 0.01 68 1020.8
20260503023643 63 67 0.0 0.0 0.00 0.06 0.01 66 1020.8
20260503022643 64 67 0.0 0.0 0.00 0.06 0.01 62 1020.5
20260503021644 65 67 0.0 0.0 0.00 0.07 0.01 62 1020.5
20260503020642 66 67 0.0 0.0 0.00 0.07 0.01 60 1020.6
20260503015642 66 67 0.0 0.0 0.00 0.08 0.01 58 1020.4
20260503014642 67 67 0.0 0.0 0.00 0.09 0.01 55 1020.2
20260503013641 68 67 0.0 0.0 0.00 0.10 0.01 54 1020.0
20260503013541 68 67 0.0 0.0 0.00 0.10 0.01 54 1020.0
20260503012542 69 67 0.0 0.0 0.00 0.11 0.01 52 1019.9
20260503010541 70 67 0.0 0.0 0.00 0.13 0.01 47 1019.6
20260503005543 71 360 0.0 0.0 0.00 0.14 0.01 45 1019.4
20260503004544 72 112 0.0 0.0 0.00 0.15 0.01 44 1019.3
20260503003642 72 53 0.0 2.0 0.00 0.19 0.01 44 1019.2
20260503002645 72 67 0.0 0.0 0.00 0.26 0.01 43 1019.2
20260503001742 73 31 0.0 1.0 0.00 0.34 0.01 42 1019.2
20260503000742 73 97 0.0 0.0 0.00 0.46 0.01 41 1019.0
20260503000643 73 112 0.0 0.0 0.00 0.47 0.01 41 1019.0
20260502234741 74 38 0.0 3.0 0.00 0.48 0.01 40 1018.9
20260502232743 75 56 1.0 4.0 0.00 0.51 0.01 40 1018.8
20260502230643 75 58 0.0 3.0 0.00 0.52 0.01 38 1018.7
20260502225644 75 166 0.0 2.0 0.00 0.53 0.01 38 1018.5
20260502224643 75 70 0.0 2.0 0.00 0.53 0.01 38 1018.5
20260502223641 75 113 0.0 2.0 0.00 0.53 0.01 39 1018.6
20260502222643 75 70 0.0 0.0 0.00 0.53 0.01 39 1018.7
20260502221644 76 358 0.0 2.0 0.00 0.53 0.01 37 1018.5
20260502220641 76 76 0.0 3.0 0.00 0.53 0.01 37 1018.7
20260502215643 76 37 1.0 4.0 0.00 0.55 0.01 37 1018.8
20260502214643 76 123 0.0 2.0 0.00 0.55 0.01 38 1018.8
20260502213741 76 93 0.0 3.0 0.00 0.57 0.01 38 1019.0
20260502212743 77 30 3.0 6.0 0.00 0.62 0.01 37 1018.8
20260502211742 77 191 0.0 0.0 0.00 0.67 0.01 37 1018.8
20260502210742 77 50 0.0 0.0 0.00 0.70 0.01 36 1018.8
20260502205741 77 71 0.0 3.0 0.00 0.83 0.01 35 1018.8
20260502204743 77 45 1.0 5.0 0.00 0.90 0.01 35 1019.0
20260502202941 77 38 1.0 3.0 0.00 1.03 0.01 35 1019.2
20260502201943 76 309 0.0 1.0 0.00 1.15 0.01 38 1019.4
20260502201041 76 225 0.0 0.0 0.00 1.43 0.01 37 1019.5
20260502200042 76 64 1.0 5.0 0.00 1.55 0.01 37 1019.3